Вернуться в каталог

FENGYUN 1C DEB

АктивенSSO
NORAD 37046·DEBRIS·🇨🇳 China

Запущен May 10, 1999 с Taiyuan Satellite Launch Center

Loading…

Ближайшие Пролёты (ближайшие 24 часа)

TLE

УстаревающийSource: Space-Track

Эпоха: Sep 10, 2026, 06:19 UTC

1 37046U 99025EEE 26253.26360194  .00000943  00000-0  41099-3 0  9996
2 37046  98.5366 265.3477 0048297 233.5760 126.0962 14.25653086680492

Отслеживайте FENGYUN 1C DEB в реальном времени с AllMySat

Download on the App Store